TimeEST,TemperatureF,Dew PointF,Humidity,Sea Level PressureIn,VisibilityMPH,Wind Direction,Wind SpeedMPH,Gust SpeedMPH,PrecipitationIn,Events,Conditions,WindDirDegrees,DateUTC
12:31 AM,14.0,6.8,73,30.15,3.0,North,16.1,26.5,0.00,Snow,Light Snow,360,2014-01-03 05:31:00
12:53 AM,14.0,6.1,71,30.20,3.0,North,18.4,25.3,0.00,Snow,Light Snow,350,2014-01-03 05:53:00
12:57 AM,14.0,6.8,73,30.16,1.5,North,17.3,25.3,0.00,Snow,Light Snow,350,2014-01-03 05:57:00
1:09 AM,12.2,6.8,79,30.17,1.0,North,18.4,-,0.00,Snow,Light Snow,350,2014-01-03 06:09:00
1:25 AM,12.2,6.8,79,30.18,3.0,NNW,16.1,25.3,0.00,Snow,Light Snow,340,2014-01-03 06:25:00
1:33 AM,12.2,6.8,79,30.18,3.0,NNW,18.4,25.3,0.00,Snow,Light Snow,340,2014-01-03 06:33:00
1:43 AM,12.2,6.8,79,30.19,2.5,NNW,16.1,-,0.00,Snow,Light Snow,340,2014-01-03 06:43:00
1:51 AM,12.2,6.8,79,30.20,3.0,NNW,15.0,-,0.00,Snow,Light Snow,340,2014-01-03 06:51:00
1:53 AM,12.0,6.1,77,30.24,3.0,NNW,16.1,-,0.00,Snow,Light Snow,340,2014-01-03 06:53:00
2:01 AM,12.2,6.8,79,30.21,2.0,NNW,16.1,-,0.00,Snow,Light Snow,340,2014-01-03 07:01:00
2:10 AM,12.2,6.8,79,30.21,1.8,NNW,15.0,-,0.00,Snow,Light Snow,340,2014-01-03 07:10:00
2:17 AM,12.2,5.0,73,30.22,3.0,NNW,15.0,-,0.00,Snow,Light Snow,340,2014-01-03 07:17:00
2:53 AM,10.9,3.9,73,30.29,7.0,North,15.0,-,0.00,Snow,Light Snow,350,2014-01-03 07:53:00
3:53 AM,10.9,5.0,77,30.30,3.0,North,11.5,-,0.00,Snow,Light Snow,350,2014-01-03 08:53:00
4:01 AM,10.4,5.0,79,30.26,2.0,North,11.5,-,0.00,Snow,Light Snow,350,2014-01-03 09:01:00
4:17 AM,10.4,5.0,79,30.27,3.0,North,13.8,19.6,0.00,Snow,Light Snow,350,2014-01-03 09:17:00
4:53 AM,10.9,5.0,77,30.33,3.0,North,12.7,-,0.00,Snow,Light Snow,350,2014-01-03 09:53:00
5:53 AM,10.9,3.0,70,30.35,6.0,North,11.5,-,0.00,Snow,Light Snow,360,2014-01-03 10:53:00
6:53 AM,9.0,3.9,80,30.38,2.5,NW,6.9,-,0.00,Snow,Light Snow,310,2014-01-03 11:53:00
7:10 AM,8.6,3.2,79,30.34,3.0,NW,8.1,-,0.00,Snow,Light Snow,320,2014-01-03 12:10:00
7:38 AM,8.6,3.2,79,30.35,8.0,NW,9.2,-,0.00,Snow,Light Snow,320,2014-01-03 12:38:00
7:53 AM,9.0,3.0,77,30.42,10.0,NW,10.4,-,0.00,,Overcast,320,2014-01-03 12:53:00
8:53 AM,8.1,3.0,80,30.44,2.0,WNW,6.9,-,0.00,Snow,Light Snow,290,2014-01-03 13:53:00
9:00 AM,8.6,1.4,73,30.39,1.2,WNW,9.2,-,0.00,Snow,Light Snow,290,2014-01-03 14:00:00
9:29 AM,8.6,1.4,73,30.40,1.0,NW,6.9,-,0.00,Snow,Light Snow,320,2014-01-03 14:29:00
9:53 AM,7.0,1.9,80,30.45,2.5,WSW,9.2,-,0.00,Snow,Light Snow,250,2014-01-03 14:53:00
10:13 AM,5.0,-0.4,78,30.41,1.8,WSW,8.1,-,0.00,Snow,Light Snow,250,2014-01-03 15:13:00
10:25 AM,5.0,-0.4,78,30.42,2.0,WSW,9.2,-,0.00,Snow,Light Snow,250,2014-01-03 15:25:00
10:37 AM,5.0,-0.4,78,30.42,3.0,WSW,9.2,-,0.00,Snow,Light Snow,250,2014-01-03 15:37:00
10:53 AM,5.0,-0.9,76,30.48,4.0,WSW,10.4,-,0.00,Snow,Light Snow,250,2014-01-03 15:53:00
11:01 AM,6.8,-0.4,72,30.43,5.0,West,10.4,-,0.00,Snow,Light Snow,260,2014-01-03 16:01:00
11:18 AM,6.8,-0.4,72,30.42,4.0,WSW,8.1,-,0.00,Snow,Light Snow,250,2014-01-03 16:18:00
11:46 AM,6.8,-0.4,72,30.41,10.0,WSW,8.1,-,0.00,,Scattered Clouds,250,2014-01-03 16:46:00
11:53 AM,7.0,-0.9,70,30.46,10.0,West,8.1,-,0.00,,Partly Cloudy,260,2014-01-03 16:53:00
12:53 PM,9.0,-0.0,67,30.46,10.0,WSW,9.2,-,N/A,,Clear,250,2014-01-03 17:53:00
1:53 PM,10.9,1.9,67,30.44,10.0,WSW,4.6,-,N/A,,Clear,250,2014-01-03 18:53:00
2:53 PM,10.9,-0.9,59,30.43,10.0,WSW,6.9,-,N/A,,Clear,250,2014-01-03 19:53:00
3:53 PM,10.9,-0.9,59,30.46,10.0,WSW,8.1,-,N/A,,Clear,250,2014-01-03 20:53:00
4:53 PM,10.0,-2.9,56,30.45,10.0,SW,9.2,-,N/A,,Clear,220,2014-01-03 21:53:00
5:53 PM,8.1,-4.0,58,30.44,10.0,SSW,6.9,-,N/A,,Clear,210,2014-01-03 22:53:00
6:53 PM,8.1,-2.9,61,30.40,10.0,SSW,5.8,-,N/A,,Partly Cloudy,200,2014-01-03 23:53:00
7:53 PM,9.0,-2.0,61,30.40,10.0,South,5.8,-,N/A,,Mostly Cloudy,190,2014-01-04 00:53:00
8:53 PM,10.9,-0.9,59,30.37,10.0,South,9.2,-,N/A,,Overcast,180,2014-01-04 01:53:00
9:53 PM,12.0,1.0,61,30.35,10.0,South,10.4,-,N/A,,Overcast,190,2014-01-04 02:53:00
10:53 PM,14.0,-0.0,54,30.33,10.0,SSW,13.8,-,N/A,,Overcast,200,2014-01-04 03:53:00
11:53 PM,12.9,-0.0,56,30.29,10.0,SSW,11.5,-,N/A,,Clear,200,2014-01-04 04:53:00